Location: Elende
(51.4317°N, 10.6316°E)
Time: 01:21:02
(UTC+00:00)

Cosmos 1269 Rocket - Pass Details

Date: 18 September 2020
Orbit: 772 x 780 km, 74.1° (Epoch: 23 October)

Event Time Altitude Azimuth Distance (km) Brightness Sun altitude
Rises 19:32:23 0° 336° (NNW) 3,275 8.1 -19.9°
Reaches altitude 10° 19:34:48 10° 340° (NNW) 2,344 7.2 -20.2°
Maximum altitude 19:40:06 64° 62° (ENE) 862 4.1 -20.9°
Enters shadow 19:41:30 46° 121° (ESE) 1,037 4.2 -21.1°
